Holdrege, NE

9:15 AM CDT on March 26, 2017 (GMT -0500)
Brewster

Weather History for KHDE - May, 2013

Change the Weather History Date:

Sunday, May 12, 2013

  Actual Average Record
Temperature  
Mean Temperature 56 °F -  
Max Temperature 73 °F 70 °F 95 °F (1962)
Min Temperature 39 °F 46 °F 30 °F (1953)
Degree Days  
Heating Degree Days 9    
Growing Degree Days 6 (Base 50)    
Moisture  
Dew Point 35 °F    
Average Humidity 48    
Maximum Humidity 72    
Minimum Humidity 29    
Precipitation  
Precipitation 0.00 in - - ()
Sea Level Pressure  
Sea Level Pressure 30.15 in    
Wind  
Wind Speed 9 mph (SE)    
Max Wind Speed 22 mph    
Max Gust Speed 30 mph    
Visibility 10 miles    
Events      
Averages and records for this station are not official NWS values.
T = Trace of Precipitation, MM = Missing Value Source: NWS Daily Summary

Daily Weather History Graph

Daily Weather History Graph

Search for Another Location

Airport or City:

Trip Planner

Search our weather history database for the weather conditions in past years. The results will help you decide how hot, cold, wet, or windy it might be!

Date:

Astronomy

May. 12, 2013 Rise Set
Actual Time 6:23 AM CDT 8:44 PM CDT
Civil Twilight 5:52 AM CDT 9:15 PM CDT
Nautical Twilight 5:15 AM CDT 9:53 PM CDT
Astronomical Twilight 4:33 AM CDT 10:35 PM CDT
Moon 8:19 AM CDT (5/12) 11:12 PM CDT (5/12)
Length of Visible Light 15h 22m
Length of Day
14h 20m
Waxing Crescent, 7% of the Moon is Illuminated
May 12
Waxing Crescent
May 17
First Quarter
May 24
Full
May 31
Last Quarter
Jun 8
New

Hourly Weather History & Observations

Time (CDT) Temp. Windchill Dew Point Humidity Pressure Visibility Wind Dir Wind Speed Gust Speed Precip Events Conditions
12:17 AM 42.8 °F 39.3 °F 28.4 °F 57% 30.24 in 10.0 mi SE 5.8 mph - N/A   Clear
12:38 AM 42.8 °F 39.3 °F 28.4 °F 57% 30.25 in 10.0 mi SE 5.8 mph - N/A   Clear
12:57 AM 42.8 °F 38.6 °F 28.4 °F 57% 30.25 in 10.0 mi SSE 6.9 mph - N/A   Clear
1:17 AM 41.0 °F 37.1 °F 28.4 °F 61% 30.24 in 10.0 mi SSE 5.8 mph - N/A   Clear
1:37 AM 41.0 °F - 28.4 °F 61% 30.25 in 10.0 mi Calm Calm - N/A   Clear
1:58 AM 39.2 °F 35.0 °F 28.4 °F 65% 30.25 in 10.0 mi ESE 5.8 mph - N/A   Clear
2:17 AM 39.2 °F 35.0 °F 28.4 °F 65% 30.25 in 10.0 mi ESE 5.8 mph - N/A   Clear
2:37 AM 39.2 °F 35.9 °F 28.4 °F 65% 30.25 in 10.0 mi ESE 4.6 mph - N/A   Scattered Clouds
2:57 AM 39.2 °F 37.0 °F 28.4 °F 65% 30.25 in 10.0 mi ESE 3.5 mph - N/A   Scattered Clouds
3:17 AM 41.0 °F 35.8 °F 28.4 °F 61% 30.24 in 10.0 mi ESE 8.1 mph - N/A   Scattered Clouds
3:37 AM 39.2 °F 33.0 °F 28.4 °F 65% 30.24 in 10.0 mi ESE 9.2 mph - N/A   Clear
3:57 AM 41.0 °F 35.8 °F 30.2 °F 65% 30.23 in 10.0 mi ESE 8.1 mph - N/A   Scattered Clouds
4:19 AM 42.8 °F 37.5 °F 28.4 °F 57% 30.23 in 10.0 mi SE 9.2 mph - N/A   Mostly Cloudy
4:37 AM 41.0 °F 36.4 °F 28.4 °F 61% 30.24 in 10.0 mi ESE 6.9 mph - N/A   Scattered Clouds
4:57 AM 39.2 °F 33.6 °F 28.4 °F 65% 30.23 in 10.0 mi ESE 8.1 mph - N/A   Clear
5:18 AM 39.2 °F 33.6 °F 28.4 °F 65% 30.21 in 10.0 mi SE 8.1 mph - N/A   Clear
5:37 AM 39.2 °F 33.0 °F 28.4 °F 65% 30.21 in 10.0 mi SE 9.2 mph - N/A   Clear
5:57 AM 41.0 °F 33.9 °F 28.4 °F 61% 30.20 in 10.0 mi ESE 12.7 mph - N/A   Scattered Clouds
6:19 AM 42.8 °F 37.5 °F 28.4 °F 57% 30.22 in 10.0 mi ESE 9.2 mph - N/A   Mostly Cloudy
6:37 AM 44.6 °F 38.8 °F 30.2 °F 57% 30.20 in 10.0 mi SE 11.5 mph - N/A   Light Drizzle
6:57 AM 42.8 °F 36.6 °F 30.2 °F 61% 30.20 in 10.0 mi SE 11.5 mph - N/A   Scattered Clouds
7:17 AM 46.4 °F 40.7 °F 28.4 °F 50% 30.22 in 10.0 mi ESE 12.7 mph - N/A   Mostly Cloudy
7:37 AM 44.6 °F 38.4 °F 30.2 °F 57% 30.22 in 10.0 mi ESE 12.7 mph - N/A   Scattered Clouds
7:57 AM 48.2 °F - 28.4 °F 46% 30.21 in 10.0 mi SE 15.0 mph - N/A   Scattered Clouds
8:17 AM 48.2 °F - 28.4 °F 46% 30.18 in 10.0 mi SE 20.7 mph 27.6 mph N/A   Scattered Clouds
8:37 AM 48.2 °F - 28.4 °F 46% 30.20 in 10.0 mi ESE 15.0 mph - N/A   Scattered Clouds
8:57 AM 51.8 °F - 28.4 °F 41% 30.18 in 10.0 mi SE 21.9 mph 27.6 mph N/A   Clear
9:17 AM 53.6 °F - 26.6 °F 35% 30.17 in 10.0 mi SSE 21.9 mph 28.8 mph N/A   Clear
9:37 AM 53.6 °F - 28.4 °F 38% 30.17 in 10.0 mi SSE 21.9 mph 29.9 mph N/A   Clear
9:57 AM 55.4 °F - 28.4 °F 36% 30.16 in 10.0 mi SSE 20.7 mph 26.5 mph N/A   Clear
10:17 AM 57.2 °F - 28.4 °F 33% 30.16 in 10.0 mi SSE 19.6 mph 28.8 mph N/A   Clear
10:37 AM 59.0 °F - 30.2 °F 34% 30.14 in 10.0 mi South 17.3 mph 25.3 mph N/A   Clear
10:57 AM 59.0 °F - 32.0 °F 36% 30.14 in 10.0 mi South 17.3 mph 23.0 mph N/A   Clear
11:17 AM 60.8 °F - 33.8 °F 36% 30.15 in 10.0 mi SSE 16.1 mph 24.2 mph N/A   Clear
11:37 AM 62.6 °F - 33.8 °F 34% 30.16 in 10.0 mi SSE 15.0 mph 20.7 mph N/A   Clear
11:57 AM 62.6 °F - 35.6 °F 37% 30.15 in 10.0 mi SSE 15.0 mph 19.6 mph N/A   Clear
12:17 PM 64.4 °F - 35.6 °F 34% 30.15 in 10.0 mi SSE 10.4 mph 21.9 mph N/A   Clear
12:37 PM 64.4 °F - 35.6 °F 34% 30.15 in 10.0 mi South 10.4 mph 16.1 mph N/A   Clear
12:57 PM 64.4 °F - 35.6 °F 34% 30.14 in 10.0 mi SSW 9.2 mph - N/A   Clear
1:17 PM 66.2 °F - 37.4 °F 35% 30.13 in 10.0 mi SSE 9.2 mph - N/A   Clear
1:37 PM 66.2 °F - 37.4 °F 35% 30.13 in 10.0 mi South 9.2 mph - N/A   Clear
1:57 PM 68.0 °F - 37.4 °F 33% 30.13 in 10.0 mi SSW 4.6 mph - N/A   Clear
2:16 PM 68.0 °F - 37.4 °F 33% 30.13 in 10.0 mi SSE 4.6 mph 18.4 mph N/A   Clear
2:36 PM 68.0 °F - 37.4 °F 33% 30.12 in 10.0 mi SSE 8.1 mph - N/A   Clear
2:57 PM 69.8 °F - 37.4 °F 31% 30.11 in 10.0 mi South 3.5 mph 16.1 mph N/A   Clear
3:16 PM 69.8 °F - 37.4 °F 31% 30.11 in 10.0 mi South 8.1 mph - N/A   Clear
3:37 PM 69.8 °F - 39.2 °F 33% 30.11 in 10.0 mi Calm Calm - N/A   Clear
3:56 PM 71.6 °F - 39.2 °F 31% 30.10 in 10.0 mi East 6.9 mph - N/A   Clear
4:16 PM 71.6 °F - 39.2 °F 31% 30.09 in 10.0 mi South 8.1 mph - N/A   Clear
4:37 PM 71.6 °F - 39.2 °F 31% 30.09 in 10.0 mi South 9.2 mph - N/A   Clear
4:57 PM 71.6 °F - 39.2 °F 31% 30.08 in 10.0 mi SE 4.6 mph - N/A   Clear
5:17 PM 71.6 °F - 41.0 °F 33% 30.08 in 10.0 mi SE 6.9 mph - N/A   Clear
5:37 PM 73.4 °F - 39.2 °F 29% 30.08 in 10.0 mi South 5.8 mph - N/A   Clear
5:57 PM 73.4 °F - 39.2 °F 29% 30.07 in 10.0 mi South 9.2 mph - N/A   Clear
6:17 PM 71.6 °F - 41.0 °F 33% 30.07 in 10.0 mi SSE 5.8 mph - N/A   Clear
6:36 PM 71.6 °F - 42.8 °F 35% 30.06 in 10.0 mi SSE 10.4 mph - N/A   Clear
7:16 PM 71.6 °F - 42.8 °F 35% 30.06 in 10.0 mi SSE 11.5 mph 17.3 mph N/A   Clear
7:36 PM 69.8 °F - 42.8 °F 38% 30.05 in 10.0 mi SSE 13.8 mph - N/A   Clear
7:57 PM 69.8 °F - 44.6 °F 40% 30.05 in 10.0 mi SSE 13.8 mph - N/A   Clear
8:17 PM 66.2 °F - 44.6 °F 46% 30.05 in 10.0 mi SE 12.7 mph - N/A   Clear
8:36 PM 64.4 °F - 44.6 °F 49% 30.06 in 10.0 mi SE 12.7 mph - N/A   Clear
8:57 PM 62.6 °F - 44.6 °F 52% 30.06 in 10.0 mi SE 11.5 mph - N/A   Clear
9:17 PM 60.8 °F - 44.6 °F 55% 30.06 in 10.0 mi SE 10.4 mph - N/A   Clear
9:37 PM 59.0 °F - 44.6 °F 59% 30.06 in 10.0 mi SE 10.4 mph - N/A   Clear
9:56 PM 59.0 °F - 44.6 °F 59% 30.07 in 10.0 mi SE 11.5 mph - N/A   Clear
10:16 PM 55.4 °F - 44.6 °F 67% 30.07 in 10.0 mi SE 9.2 mph - N/A   Clear
10:37 PM 55.4 °F - 44.6 °F 67% 30.07 in 10.0 mi SE 10.4 mph - N/A   Clear
10:57 PM 55.4 °F - 44.6 °F 67% 30.07 in 10.0 mi SE 11.5 mph - N/A   Clear
11:17 PM 55.4 °F - 44.6 °F 67% 30.07 in 10.0 mi SE 10.4 mph - N/A   Clear
11:37 PM 53.6 °F - 44.6 °F 72% 30.07 in 10.0 mi SE 10.4 mph - N/A   Clear
11:57 PM 53.6 °F - 44.6 °F 72% 30.07 in 10.0 mi SE 10.4 mph - N/A   Clear